Regional Weather Roundup
Issued by NWS Upton, NY

Current Version | Previous Version | Text Only | Print | Product List | Glossary On
Versions: 1 2 3 4 5 6 7 8 9 10 11 12 13 14 15 16 17 18 19 20 21 22 23 24 25 26 27
000
ASUS41 KOKX 262109
RWROKX

REGIONAL WEATHER ROUNDUP
NATIONAL WEATHER SERVICE NEW YORK NY
500 PM EDT WED JUL 26 2017

NOTE: "FAIR" INDICATES FEW OR NO CLOUDS BELOW 12,000 FEET WITH NO
SIGNIFICANT WEATHER AND/OR OBSTRUCTIONS TO VISIBILITY.

NYZ071-072-176-178-NJZ106-104-262200-
NEW YORK CITY METRO AREA

CITY           SKY/WX    TMP DP  RH WIND       PRES   REMARKS
Central Park   FAIR      74  56  53 VRB3      30.20R
Bronx Bot Gard   N/A     73  55  53 SE1       30.17S
LaGuardia APRT PTSUNNY   76  57  51 S9        30.17S
Kennedy INTL   FAIR      74  57  55 S12       30.19F
Breezy Point     N/A     70 N/A N/A S10         N/A
Newark/Liberty PTSUNNY   75  54  47 SE8       30.17S
Teterboro      PTSUNNY   77  56  48 SW9       30.16S
$$

NYZ177-179-078>081-262200-
LONG ISLAND NEW YORK

CITY           SKY/WX    TMP DP  RH WIND       PRES   REMARKS
Jones Beach      N/A     72 N/A N/A S8          N/A
Matinecock PT    N/A     70 N/A N/A E8          N/A
Farmingdale    FAIR      72  57  59 S9        30.18F
MacArthur/ISP  FAIR      73  56  54 S8        30.18S
Shirley        FAIR      75  57  53 SE9       30.18F
Mt Sinai Harb    N/A    N/A N/A N/A NE2         N/A
Westhampton    FAIR      73  55  53 VRB6      30.19F
East Hampton   FAIR      71  57  61 S6        30.17F
Montauk          N/A     72  61  68 VRB5      30.18F
$$

NYZ052-065-067-262200-
HUDSON VALLEY

CITY           SKY/WX    TMP DP  RH WIND       PRES   REMARKS
White Plains   FAIR      74  56  53 VRB5      30.17S
Larchmont Harb   N/A     72 N/A N/A E6          N/A
Croton O-T Hud   N/A     75 N/A N/A S6          N/A
Newburgh       PTSUNNY   73  63  68 W12       30.18S
Montgomery     CLOUDY    76  61  59 SW6       30.16F
Poughkeepsie   CLOUDY    75  57  53 S6        30.15S
Albany         PTSUNNY   77  58  51 SW10      30.13F
$$

NJZ001-105-106-008-010-013-015-019>022-104-262200-
NEW JERSEY

CITY           SKY/WX    TMP DP  RH WIND       PRES   REMARKS
Newark/Liberty PTSUNNY   75  54  47 SE8       30.17S
Teterboro      PTSUNNY   77  56  48 SW9       30.16S
Caldwell       FAIR      77  54  44 VRB6      30.17S
Somerville     CLOUDY    76  62  62 CALM      30.15S
Linden         FAIR      76  47  35 S3        30.17F
Perth Amboy      N/A     73 N/A N/A E8          N/A
Sussex         FAIR      74  61  63 VRB6      30.17F
Andover          N/A     73  60  63 CALM      30.18S
Trenton        FAIR      76  62  62 SE7       30.16S
Millville      CLOUDY    75  66  73 SE8       30.16F
Atlantic City  FAIR      74  61  63 E7        30.17F
Wrightstown    PTSUNNY   73  60  63 SE3       30.14S
Toms River     CLOUDY    74  62  66 E6        30.18F
Belmar         FAIR      72  59  63 E8        30.19F
$$

PAZ047>061-062-071-262200-
EASTERN PENNSYLVANIA

CITY           SKY/WX    TMP DP  RH WIND       PRES   REMARKS
Philadelphia   PTSUNNY   81  62  52 E8        30.15S
Allentown      CLOUDY    78  60  53 CALM      30.15F
Scranton       FAIR      75  60  59 VRB5      30.14F
$$

CTZ002-004>006-009-010-012-RIZ004-006-007-MAZ004-011-015-262200-
SOUTHERN NEW ENGLAND
 IN CT

CITY           SKY/WX    TMP DP  RH WIND       PRES   REMARKS
Bradley INTL   PTSUNNY   79  55  43 SW7       30.14F
Hartford       FAIR      78  59  51 S9        30.14F
Danbury        FAIR     N/A N/A N/A S6        30.18F
Wtrbury/Oxford MOSUNNY   73  52  46 SW7       30.19F
Bridgeport     FAIR      75  57  53 SE6       30.17F
Meriden        FAIR      76  53  44 S10       30.16F
New Haven      FAIR      75  57  53 S9        30.17F
Chester        FAIR      75  54  46 S8        30.17F
Groton         FAIR      71  60  68 S7        30.16F
Wilimantic     FAIR      79  59  50 SW8       30.15F

 IN RI

CITY           SKY/WX    TMP DP  RH WIND       PRES   REMARKS
Providence     FAIR      77  59  53 SE13      30.15F
Block Island   FAIR      71  61  70 S12       30.17F
Westerly       FAIR      74  57  55 S7        30.17F
 IN MA

CITY           SKY/WX    TMP DP  RH WIND       PRES   REMARKS
Boston         FAIR      72  59  63 SE15      30.14F
Worcester      FAIR      74  51  44 S3        30.17F
Westfield      FAIR      78  56  46 SW6       30.14F
Provincetown   FAIR      74  59  59 CALM      30.16F
Nantucket      FAIR      68  59  73 SE7       30.17F
$$

ANZ330-335-338-340-345-350-353-355-262200-
COASTAL MARINE OBSERVATIONS


STATION/POSITION TIME  SKY/WX   TEMP    WIND        PRES    VSBY  WAVE
                                AIR SEA DIR/SP/G                  HT/PER
                 (UTC)          (F)     (DEG/KT/KT) (MB)    (MI)  (FT/S)
NY HARB ENTRANCE 1950            70 74  150/  6/  8 1022.1          2/ 5
20 S FIRE ISLAND 1950            69 74  110/  4/  6 1022.2          2/ 5
GREAT SOUTH BAY  2030            70 77  150/  8/ 12   N/A
23 SSW MONTAUK P 1950            68 74              1022.8          2/10
15 E BARNEGAT LI 2030               73                N/A           3/ 5
HUDSON CANYON    1950            67 72   60/  8/ 10 1021.6          3/ 5
KINGS POINT      2030            73 72  220/ 10/ 12 1021.4
EXECUTION ROCKS  2045            75      90/  2/  4   N/A
CENTRAL LI SOUND 1945            74      CALM  /  2   N/A           1
EASTERN LI SOUND NOT AVBL
ROBBINS REEF     2024                   170/ 14/ 16 1022.4
$$


>>>>>>>>>>>>>>>>>>>>>>>>>>>> KEY <<<<<<<<<<<<<<<<<<<<<<<<<<<
>                                                          <
>     SKY/WX - Sky Condition/Present Weather               <
>     TMP    - Temperature in Fahrenheit                   <
>     DP     - Dew Point in Fahrenheit                     <
>     RH     - Relative Humidity in Percent                <
>     WIND   - Direction (from) and Speed in MPH           <
>     PRES   - Mean Sea Level Pressure (inches of Hg)      <
>     WCI    - Wind Chill Index                            <
>     VSB    - VISIBILITY IN MILES                         <
>     HX     - HEAT INDEX                                  <
>     TC     - TEMPERATURE IN CELSIUS                      <
>     VRB    - VARIABLE WIND DIRECTION                     <
>                                                          <
>>>>>>>>>>>>>>>>>>>>>>>>>>>> KEY <<<<<<<<<<<<<<<<<<<<<<<<<<<




USA.gov is the U.S. government's official web portal to all federal, state and local government web resources and services.